DW1970 Bodega Bay CA US current weather conditions

sailwx.info

Wind from 323 at 0 knots

Air temperature 8.9° C
Dewpoint 8.0° C

Last reported at 2019-May-25 14:02 UTC.
Time now 2019-May-25 15:04 UTC

Location: N 38°23' W 123°04'.
View on Google Maps.

See reports from other nearby stations

  
Tides and Currents Weather Stations Pressure Air Temp Water Temp Dewpoint Dewpoint Depression Visibility Wind Speed Wind Dir Waves Ship Positions
date/time (UTC)wind fromknots sea level pressurealtimeterstation pressurevisibilityair tempwater tempwave heightnotes
2019-May-25 14:02 323 0 8.9
2019-May-25 13:46 323 2 8.9
2019-May-25 13:35 323 8.9
2019-May-25 13:32 323 2 8.9
2019-May-25 13:16 322 6 8.9
2019-May-25 13:01 311 6 8.9
2019-May-25 13:00 314 6 8.9
2019-May-25 12:46 305 2 8.3
2019-May-25 12:31 304 1 8.3
2019-May-25 12:01 308 5 8.3
2019-May-25 11:47 307 4 8.9
2019-May-25 11:32 306 8.9
2019-May-25 11:16 306 8.9
2019-May-25 11:00 306 8.9
2019-May-25 10:46 306 8.9
2019-May-25 10:31 306 9.4
2019-May-25 10:16 306 9.4
2019-May-25 10:01 306 9.4
2019-May-25 09:45 306 10.0
2019-May-25 09:30 306 9.4
2019-May-25 09:16 306 9.4
2019-May-25 09:01 306 9.4
2019-May-25 08:46 304 0 9.4
2019-May-25 08:31 280 1 9.4
2019-May-25 08:16 279 10.0
2019-May-25 08:01 279 10.0
2019-May-25 07:45 279 10.0
2019-May-25 07:30 279 10.6
2019-May-25 07:15 279 10.6
2019-May-25 07:00 279 10.6
2019-May-25 06:45 279 10.6
2019-May-25 06:30 279 10.6
2019-May-25 06:15 279 10.6
2019-May-25 06:00 279 10.6
2019-May-25 05:45 279 10.6
2019-May-25 05:30 279 10.6
2019-May-25 05:15 279 10.6
2019-May-25 05:00 279 0 10.6
2019-May-25 04:45 279 10.6
2019-May-25 04:30 279 0 10.6
2019-May-25 04:15 279 2 10.6
2019-May-25 04:00 288 2 10.6
2019-May-25 03:47 269 1 10.6
2019-May-25 03:31 267 3 10.6
2019-May-25 03:16 271 1 10.6
2019-May-25 03:02 257 3 11.1
2019-May-25 02:46 271 2 11.1
2019-May-25 02:31 275 5 11.1
2019-May-25 02:16 283 5 11.1
2019-May-25 02:02 281 5 11.7
2019-May-25 01:47 278 5 11.7
2019-May-25 01:31 284 6 11.7
2019-May-25 01:16 284 2 11.7
2019-May-25 01:01 276 4 11.7
2019-May-25 00:46 298 4 12.2
2019-May-25 00:31 286 2 12.2
2019-May-25 00:16 286 3 12.2
2019-May-25 00:01 273 3 12.2
2019-May-24 23:46 293 4 12.2
2019-May-24 23:31 279 3 12.2
2019-May-24 23:16 275 2 12.2
2019-May-24 23:00 267 1 12.8
2019-May-24 22:46 228 0 12.8
2019-May-24 22:31 178 0 12.8
2019-May-24 22:16 232 0 12.8
2019-May-24 22:01 232 0 12.2
2019-May-24 21:46 230 0 12.2
2019-May-24 21:31 248 0 12.8
2019-May-24 21:16 254 0 12.8
2019-May-24 21:01 254 1 12.2
2019-May-24 20:47 188 1 12.8
2019-May-24 20:31 213 1 12.8
2019-May-24 20:17 190 0 12.8
2019-May-24 20:00 188 0 12.8
2019-May-24 19:46 177 1 13.3
2019-May-24 19:31 163 3 13.3
2019-May-24 19:15 163 5 13.9
2019-May-24 19:01 146 4 13.3
2019-May-24 18:46 163 2 12.8
2019-May-24 18:31 148 1 12.8
2019-May-24 18:16 154 1 12.2
2019-May-24 18:01 160 2 12.2
2019-May-24 17:45 153 2 12.8
2019-May-24 17:30 148 2 12.8
2019-May-24 17:15 157 2 12.2
2019-May-24 17:00 142 6 12.2
2019-May-24 16:46 161 5 12.2
2019-May-24 16:31 112 5 12.2
2019-May-24 16:15 149 3 12.2
2019-May-24 16:00 138 6 12.2
2019-May-24 15:45 152 5 12.2
2019-May-24 15:30 138 4 12.2
2019-May-24 15:15 131 6 12.2
2019-May-24 15:00 130 6 11.7
2019-May-24 14:45 148 6 11.7
2019-May-24 14:30 113 6 11.7
2019-May-24 14:15 108 5 11.7
2019-May-24 14:00 119 5 11.7
2019-May-24 13:45 113 6 11.1
2019-May-24 13:30 132 6 11.1
2019-May-24 13:15 132 6 11.1
2019-May-24 13:02 131 6 11.1
2019-May-24 13:00 123 6 11.1
2019-May-24 12:49 119 5 11.1
2019-May-24 12:30 121 5 11.1
2019-May-24 12:17 127 6 11.1
2019-May-24 12:03 123 6 11.1
2019-May-24 11:46 148 7 11.1
2019-May-24 11:32 117 8 11.7
2019-May-24 11:16 113 8 11.1
2019-May-24 11:03 128 6 11.1
2019-May-24 10:46 134 6 11.1
2019-May-24 10:32 121 6 11.1
2019-May-24 10:16 128 8 11.1
2019-May-24 10:01 126 7 11.1
2019-May-24 09:46 115 7 11.1
2019-May-24 09:32 120 7 11.1
2019-May-24 09:16 126 7 11.1
2019-May-24 09:01 117 9 11.1
2019-May-24 08:46 127 9 11.1
2019-May-24 08:32 120 9 11.1
2019-May-24 08:16 126 9 11.1
2019-May-24 08:01 144 8 11.1
2019-May-24 07:46 134 9 11.1
2019-May-24 07:30 117 10 11.1
2019-May-24 07:15 115 9 11.1
2019-May-24 07:02 143 7 11.1
2019-May-24 06:46 115 6 11.7
2019-May-24 06:30 142 6 11.7
2019-May-24 06:15 150 7 11.7
2019-May-24 06:01 131 6 11.7
2019-May-24 05:45 153 6 11.7
2019-May-24 05:31 144 6 11.7
2019-May-24 05:15 150 6 11.7
2019-May-24 05:00 147 6 11.7
2019-May-24 04:45 129 6 11.7
2019-May-24 04:30 132 7 11.7
2019-May-24 04:16 151 4 11.7
2019-May-24 04:00 144 4 11.7
2019-May-24 03:45 128 3 11.1
2019-May-24 03:30 157 5 11.1
2019-May-24 03:15 141 3 11.7
2019-May-24 03:01 250 1 11.7
2019-May-24 02:46 270 1 11.7
2019-May-24 02:31 277 12.2
2019-May-24 02:01 277 12.8
2019-May-24 01:47 277 0 13.3
2019-May-24 01:33 277 1 14.4
2019-May-24 01:17 286 3 14.4
2019-May-24 01:01 275 3 15.0
2019-May-24 00:46 278 0 16.1
2019-May-24 00:31 280 2 15.0
2019-May-24 00:16 282 2 15.0
2019-May-24 00:02 292 0 15.0
2019-May-23 23:46 268 0 15.6
2019-May-23 23:31 274 2 15.6
2019-May-23 23:16 257 0 15.6
2019-May-23 23:01 257 2 15.6
2019-May-23 22:46 288 3 16.1
2019-May-23 22:32 286 2 15.6
2019-May-23 22:16 253 3 15.6
2019-May-23 22:01 279 3 15.6
2019-May-23 21:46 284 3 15.6
2019-May-23 21:32 277 2 15.6
2019-May-23 21:19 289 2 15.0
2019-May-23 21:01 243 2 15.0
2019-May-23 20:46 257 2 13.9
2019-May-23 20:31 257 1 13.9
2019-May-23 20:15 254 2 14.4
2019-May-23 20:01 280 6 14.4
2019-May-23 19:46 290 6 15.0
2019-May-23 19:30 282 3 15.0
2019-May-23 19:16 271 3 15.0
2019-May-23 19:00 253 2 15.0
2019-May-23 18:45 262 1 15.0
2019-May-23 18:31 267 2 14.4
2019-May-23 18:15 260 0 14.4
2019-May-23 18:01 260 0 14.4
2019-May-23 17:45 259 1 14.4
2019-May-23 17:30 286 1 14.4
2019-May-23 17:16 225 0 14.4
2019-May-23 17:00 119 17.2
2019-May-23 16:45 119 16.1
2019-May-23 16:30 146 15.0
2019-May-23 16:15 146 13.9
2019-May-23 16:00 146 0 12.2
2019-May-23 15:45 183 1 12.2
2019-May-23 15:30 179 1 12.2
2019-May-23 15:15 288 2 13.3
2019-May-23 15:00 288 0 13.3